Vorticity
3 1 3 3 3 3 2 4 3 5 4 3 5 6 6 5 4 5 5 4 5 5 5 4 4 5 6 7 7 7 7 5 3 3 3 4 4 4 2 3 5 4 6
2 6 1 3 3 3 2 6 4 5 5 3 4 5 5 5 3 3 3 4 4 5 5 4 4 4 5 7 7 7 7 6 4 3 5 5 4 3 3 6 4 5 6
3 1 5 2 3 3 2 5 5 4 5 4 3 4 4 4 3 4 4 3 3 5 5 5 5 4 5 6 7 7 6 6 5 6 5 5 3 2 5 4 5 5 7
3 4 2 3 3 2 5 5 5 3 4 5 3 4 4 3 3 4 3 3 3 3 5 6 5 4 6 7 7 6 6 6 6 6 5 3 3 4 5 4 5 6 6
3 4 2 2 2 3 2 3 4 4 4 5 5 5 4 4 4 4 3 3 3 3 5 6 5 5 5 7 6 7 7 6 6 5 3 4 3 3 3 6 5 6 5
1 1 2 2 2 3 2 4 4 4 4 3 5 6 5 5 4 4 2 3 4 3 4 4 5 4 5 5 6 7 7 6 4 3 3 4 3 2 5 5 5 5 4
2 2 2 2 5 3 4 3 4 4 4 3 3 4 4 4 3 3 3 3 3 3 4 4 4 5 5 5 6 6 6 5 4 4 4 4 3 3 5 5 6 4 3
2 -1 3 3 3 3 4 3 4 4 4 4 3 4 4 4 3 3 4 4 3 4 4 4 5 5 6 6 7 7 6 5 4 4 3 3 3 3 4 5 5 2 3
5 5 0 3 4 4 2 3 2 3 4 5 4 4 3 3 4 4 3 3 4 4 4 4 5 5 5 5 5 6 5 5 5 4 4 4 4 2 4 4 4 2 3
3 3 4 2 1 2 1 4 2 3 4 4 5 4 4 4 5 4 5 3 3 4 4 4 4 5 5 5 6 6 5 5 5 5 4 4 3 2 4 4 3 2 2
3 4 1 2 -1 -0 1 4 1 4 3 3 4 4 5 5 4 5 5 5 4 4 5 4 4 4 6 6 6 6 5 5 6 5 5 4 3 3 4 4 3 2 3
34 3 5 3 3 2 3 3 0 4 3 3 3 4 4 5 5 6 4 5 4 4 5 4 4 5 6 6 6 6 6 5 5 5 5 4 4 4 4 3 3 3 2
12 17 23 4 4 2 3 2 2 4 2 3 3 5 5 4 3 5 4 5 5 4 3 4 4 5 6 6 5 5 6 5 5 4 4 4 4 4 4 4 4 4 3
7 23 28 11 2 5 3 5 7 1 3 4 4 6 4 6 4 4 4 6 5 3 3 3 6 6 5 5 6 5 5 5 4 3 3 3 3 3 3 3 4 4 4
2 14 -1 -1 11 6 9 4 4 4 3 4 5 4 4 6 6 7 7 6 3 3 2 4 6 5 4 4 5 4 4 5 4 3 3 3 3 3 3 4 5 4 4
7 14 35 -3 4 3 4 3 6 7 6 9 4 3 4 7 6 8 5 3 0 5 4 5 6 5 5 4 4 4 4 3 3 4 3 3 3 3 4 6 5 5 4
7 17 11 49 1 5 3 5 2 6 12 9 6 8 5 4 4 -1 5 2 2 5 4 5 6 6 6 5 5 5 3 3 3 3 3 3 3 3 3 4 2 3 3
23 27 -2 4 28 4 10 5 8 11 5 -2 8 2 6 -2 3 9 -3 3 5 4 3 3 5 6 5 5 5 5 5 5 4 4 4 4 4 4 4 3 3 5 5
36 -3 12 32 2 23 11 8 8 -0 -7 3 2 5 -1 0 8 7 8 1 -3 6 6 5 5 4 5 5 6 6 5 6 6 5 5 5 5 5 5 4 5 4 4
-19 27 2 22 -9 6 15 7 5 -7 11 -0 -5 3 -4 12 12 8 6 1 9 7 1 4 2 6 6 6 6 6 5 8 7 6 5 6 5 5 5 5 4 6 7
29 -2 27 -10 43 44 32 19 37 14 9 50 -1 8 6 12 3 4 -8 9 20 2 3 5 5 5 11 6 9 8 7 8 6 7 5 6 5 5 4 5 7 9 7
-3 24 32 38 -3 -3 7 6 21 23 21 1 4 6 9 4 4 5 21 -2 1 12 6 2 1 5 7 13 8 7 7 12 10 12 8 7 5 5 8 11 5 3 3
9 -7 7 -18 -8 12 12 8 9 19 21 -1 5 8 4 8 -1 23 9 2 5 5 5 11 13 7 13 13 5 0 15 4 8 3 8 10 12 14 12 3 7 12 11
2 9 13 -15 7 4 2 -9 5 20 40 -4 45 36 -10 20 -4 2 2 4 -7 23 8 6 3 11 42 10 -2 9 2 1 6 6 -2 9 8 10 5 1 5 6 5
19 -2 9 -6 18 -3 -3 4 -5 5 10 7 -2 15 34 69 13 -2 8 13 -10 26 -1 4 16 -30 23 -2 21 30 11 16 5 14 12 11 3 3 -5 -4 5 5 9
14 -2 33 -9 -5 -12 26 6 3 18 -6 6 29 -5 15 5 10 48 -3 34 22 33 1 19 10 -1 1 -24 11 14 -7 11 14 2 5 -4 -2 1 6 10 8 8 8
Height
5869 5872 5874 5878 5881 5881 5882 5883 5884 5885 5886 5887 5888 5887 5886 5886 5885 5886 5886 5886 5886 5886 5886 5886 5885 5885 5884 5884 5883 5883 5883 5883 5883 5883 5882 5881 5881 5880 5879 5878 5876 5874 5872
5864 5868 5871 5874 5877 5878 5880 5881 5882 5883 5884 5886 5886 5886 5885 5885 5884 5884 5885 5885 5885 5885 5885 5885 5885 5885 5884 5883 5883 5882 5882 5882 5882 5882 5881 5881 5881 5880 5879 5877 5875 5873 5872
5859 5863 5867 5871 5873 5875 5877 5878 5880 5880 5882 5883 5884 5885 5884 5883 5883 5883 5883 5883 5883 5884 5884 5884 5884 5883 5883 5882 5882 5882 5882 5881 5881 5881 5881 5880 5880 5879 5878 5876 5875 5873 5871
5854 5859 5863 5866 5869 5871 5873 5875 5876 5878 5879 5880 5881 5883 5882 5882 5882 5882 5882 5881 5882 5882 5882 5882 5882 5882 5881 5881 5881 5881 5881 5881 5880 5880 5880 5880 5879 5878 5876 5875 5874 5872 5871
5849 5854 5858 5861 5864 5867 5869 5871 5872 5874 5877 5878 5879 5879 5879 5880 5881 5881 5881 5880 5880 5880 5880 5880 5880 5880 5880 5880 5879 5879 5879 5879 5879 5879 5879 5878 5878 5876 5875 5874 5873 5871 5870
5845 5848 5853 5857 5860 5863 5865 5867 5869 5871 5873 5874 5875 5876 5877 5878 5879 5879 5879 5879 5878 5878 5878 5878 5878 5877 5878 5878 5878 5878 5878 5878 5878 5878 5877 5877 5876 5876 5874 5873 5871 5870 5869
5839 5843 5847 5851 5855 5858 5861 5863 5866 5868 5870 5871 5872 5873 5874 5875 5876 5876 5876 5876 5877 5877 5876 5876 5876 5876 5876 5876 5876 5876 5876 5876 5876 5876 5875 5875 5874 5873 5872 5871 5870 5869 5867
5832 5838 5841 5845 5849 5852 5855 5858 5861 5863 5866 5868 5868 5869 5870 5872 5873 5874 5874 5874 5874 5875 5875 5875 5874 5875 5874 5874 5874 5875 5875 5875 5874 5874 5873 5873 5872 5871 5871 5870 5869 5867 5866
5824 5829 5834 5838 5843 5846 5849 5852 5855 5858 5861 5863 5865 5866 5867 5868 5869 5870 5871 5872 5872 5872 5872 5873 5873 5873 5873 5873 5873 5873 5873 5873 5872 5872 5872 5871 5870 5869 5869 5868 5866 5865 5864
5812 5817 5823 5829 5834 5838 5841 5846 5849 5852 5856 5858 5860 5862 5863 5864 5865 5866 5867 5867 5868 5869 5869 5870 5870 5870 5870 5870 5870 5870 5870 5870 5870 5870 5870 5869 5868 5868 5866 5865 5864 5863 5861
5801 5805 5810 5818 5826 5830 5834 5839 5843 5846 5849 5853 5855 5857 5858 5860 5861 5862 5863 5863 5864 5865 5865 5866 5867 5867 5867 5867 5867 5867 5867 5868 5868 5868 5867 5866 5866 5865 5864 5863 5862 5860 5859
5782 5793 5804 5809 5815 5822 5828 5832 5837 5840 5844 5847 5849 5852 5854 5855 5857 5858 5859 5859 5859 5861 5861 5862 5863 5863 5864 5864 5864 5864 5864 5864 5865 5865 5864 5864 5863 5862 5861 5860 5858 5857 5855
5769 5779 5790 5800 5808 5814 5821 5825 5830 5835 5837 5840 5843 5846 5849 5850 5851 5853 5855 5855 5856 5857 5857 5857 5858 5858 5859 5860 5860 5860 5860 5861 5860 5860 5860 5859 5858 5858 5857 5855 5854 5852 5851
5760 5773 5780 5789 5798 5805 5812 5818 5823 5827 5831 5834 5837 5839 5842 5845 5846 5848 5850 5850 5851 5853 5852 5853 5853 5853 5854 5855 5856 5856 5856 5855 5855 5855 5855 5855 5855 5853 5852 5852 5850 5848 5845
5758 5767 5770 5779 5788 5797 5806 5811 5816 5821 5824 5828 5831 5834 5836 5838 5841 5842 5843 5845 5846 5848 5848 5848 5849 5849 5849 5850 5850 5851 5850 5851 5850 5850 5850 5850 5850 5849 5848 5846 5844 5842 5840
5762 5764 5762 5768 5778 5788 5797 5802 5808 5814 5819 5822 5824 5827 5830 5833 5835 5836 5837 5839 5841 5842 5843 5843 5845 5845 5845 5845 5846 5846 5846 5845 5846 5846 5846 5845 5844 5842 5842 5841 5840 5838 5835
5755 5760 5754 5761 5770 5780 5787 5793 5798 5805 5811 5815 5817 5820 5824 5826 5828 5830 5831 5832 5834 5836 5837 5838 5840 5840 5841 5840 5840 5840 5840 5840 5840 5839 5839 5838 5838 5837 5835 5836 5833 5832 5830
5749 5752 5753 5758 5763 5770 5777 5783 5790 5796 5800 5806 5811 5814 5817 5819 5821 5822 5823 5826 5828 5830 5830 5831 5833 5833 5833 5833 5833 5833 5833 5832 5832 5832 5832 5831 5830 5830 5830 5829 5827 5825 5824
5743 5747 5748 5751 5758 5763 5770 5775 5780 5785 5791 5795 5802 5807 5811 5812 5812 5814 5816 5820 5822 5823 5824 5824 5825 5825 5826 5825 5826 5826 5825 5825 5825 5825 5824 5824 5823 5821 5820 5820 5818 5817 5815
5740 5746 5746 5750 5754 5757 5762 5769 5775 5778 5784 5788 5793 5799 5803 5805 5807 5809 5810 5812 5815 5816 5816 5816 5817 5818 5818 5818 5818 5818 5817 5818 5817 5816 5816 5814 5815 5814 5811 5811 5810 5808 5805
5737 5740 5742 5748 5753 5758 5764 5771 5772 5776 5781 5784 5788 5791 5795 5798 5802 5802 5804 5805 5807 5809 5809 5809 5809 5810 5812 5811 5810 5809 5809 5809 5808 5807 5807 5807 5805 5805 5804 5804 5803 5800 5798
5734 5736 5739 5746 5750 5757 5764 5768 5770 5772 5777 5777 5779 5784 5787 5791 5793 5795 5798 5800 5802 5802 5802 5801 5802 5803 5804 5803 5802 5800 5799 5800 5800 5799 5799 5798 5797 5796 5796 5795 5794 5793 5790
5731 5735 5740 5746 5750 5752 5757 5762 5766 5768 5769 5770 5772 5776 5778 5782 5785 5789 5790 5792 5794 5791 5792 5794 5793 5794 5794 5793 5792 5792 5791 5791 5792 5791 5790 5788 5788 5790 5787 5786 5784 5782 5780
5726 5730 5736 5742 5745 5747 5751 5758 5760 5761 5761 5764 5768 5770 5770 5773 5777 5781 5783 5785 5785 5786 5786 5786 5785 5784 5782 5783 5783 5785 5783 5783 5782 5784 5782 5779 5779 5780 5780 5777 5774 5772 5769
5719 5724 5727 5735 5741 5741 5747 5751 5753 5754 5755 5761 5763 5764 5765 5767 5771 5774 5777 5776 5777 5779 5778 5775 5776 5775 5775 5777 5776 5775 5775 5775 5774 5776 5776 5772 5771 5770 5769 5767 5764 5763 5760
5711 5717 5724 5726 5732 5737 5741 5746 5747 5748 5749 5754 5755 5756 5759 5762 5760 5763 5765 5765 5768 5769 5767 5766 5766 5766 5766 5767 5768 5767 5766 5766 5765 5766 5766 5763 5761 5759 5756 5754 5752 5751 5748